Theta_e
318 320 320 321 321 321 320 321 323 323 325 325 328 327 327 329 326 321 312 321 325 331 325 322 322 317 315 310 310 306 298 295 298 299 301 301 301 302 306 307 309 314 317 319 325
320 320 319 319 321 322 321 321 323 324 324 324 327 327 326 327 319 314 323 331 332 332 322 321 315 315 308 306 308 301 295 298 306 305 301 301 301 302 304 305 307 315 321 325 323
320 319 320 320 320 321 321 322 323 323 323 322 326 326 325 323 312 313 327 330 334 331 320 317 317 314 307 306 305 303 297 303 306 305 303 304 301 303 303 301 308 313 319 323 321
319 319 319 320 320 320 320 322 323 322 323 322 325 325 324 319 299 314 327 330 333 321 317 314 312 309 305 303 305 300 303 304 306 304 301 301 302 301 303 305 308 317 323 323 321
318 318 318 319 320 319 320 321 322 322 322 322 322 324 319 310 308 316 325 329 324 319 315 312 311 307 304 305 304 301 303 306 308 305 300 300 298 300 300 304 305 321 323 323 322
318 318 318 318 319 320 320 321 321 321 321 320 320 324 314 304 317 316 319 325 319 315 312 313 311 311 305 304 307 307 306 307 308 305 300 297 296 297 299 301 312 321 320 322 323
318 317 317 318 319 319 320 320 321 321 321 321 320 319 310 307 316 316 318 316 318 314 309 313 315 311 309 304 309 308 303 307 308 302 297 297 294 295 300 299 308 318 319 319 321
317 317 317 317 318 319 319 319 320 321 321 321 319 315 304 319 316 315 317 314 316 317 315 316 315 310 307 306 303 303 303 298 307 301 298 296 291 302 300 298 298 307 316 319 319
316 316 316 317 317 317 318 318 319 320 321 320 312 307 300 319 310 314 315 313 314 316 316 318 315 306 307 298 296 298 294 296 301 302 298 295 293 301 304 297 297 295 304 315 318
316 315 316 317 317 316 317 316 317 315 316 316 312 301 306 305 313 313 315 315 312 312 310 309 307 302 300 297 291 292 293 296 297 303 297 293 293 299 300 298 297 297 297 304 312
316 315 316 316 316 316 313 305 297 295 303 302 302 300 305 311 316 311 313 311 311 308 300 304 298 295 298 300 300 298 296 296 301 305 298 297 294 297 300 298 298 296 294 296 302
309 315 316 316 316 316 307 297 296 298 292 301 305 305 308 312 305 309 313 305 303 298 299 297 294 300 302 301 300 299 296 295 301 304 300 296 294 299 298 298 301 301 298 297 299
311 314 315 315 315 311 303 300 307 304 291 296 302 302 304 306 303 304 309 306 301 297 297 295 298 301 300 298 296 297 295 297 297 299 298 293 294 296 296 300 302 303 305 302 300
310 309 315 314 307 305 302 306 306 301 281 285 295 300 304 305 297 311 311 305 300 296 297 297 299 298 297 296 298 293 300 298 299 293 291 294 290 293 296 297 299 301 303 303 302
309 309 314 312 302 301 304 306 302 294 262 284 294 306 303 298 301 304 311 305 297 296 296 292 294 295 295 297 300 295 301 299 299 294 290 287 285 290 290 292 296 299 302 304 304
308 309 313 307 304 304 306 302 295 275 267 287 295 295 296 297 298 304 304 308 305 296 297 295 300 299 298 300 301 301 299 295 294 291 284 292 285 286 288 293 294 297 299 302 302
306 306 307 306 298 306 302 295 275 266 279 284 289 294 293 293 295 298 297 296 292 287 288 293 293 297 300 296 300 299 293 284 282 283 284 287 284 291 294 296 295 296 297 298 300
306 306 305 306 306 303 298 280 265 268 273 289 290 291 288 292 293 295 295 293 294 293 289 286 285 294 298 296 294 295 292 285 279 280 283 285 282 288 296 301 302 297 297 294 295
307 303 300 304 306 302 289 275 271 271 280 286 289 287 288 291 292 292 292 291 292 293 289 287 286 297 298 298 298 293 289 293 283 277 278 281 284 289 293 293 293 294 295 293 293
300 298 293 305 304 297 284 275 275 280 285 285 279 285 285 287 288 290 289 295 292 295 298 292 286 293 295 298 298 295 297 288 285 277 273 278 279 284 289 292 293 291 291 292 292
296 288 297 306 301 290 279 276 281 287 287 281 279 285 288 287 290 288 288 292 296 294 298 295 290 287 293 292 292 291 291 291 291 284 277 275 280 288 291 291 292 292 292 292 292
287 283 300 302 286 285 279 281 288 286 288 286 284 283 286 285 285 289 288 291 296 297 292 297 289 284 286 293 296 296 293 292 287 281 281 280 281 290 289 288 290 292 291 291 291
286 289 300 297 280 279 281 282 285 285 284 284 283 285 287 284 281 285 287 296 296 296 295 295 285 281 283 288 291 291 292 295 291 286 282 279 284 289 287 287 288 290 290 290 289
286 283 288 290 284 282 280 278 280 286 285 286 285 286 284 282 285 284 285 293 296 297 298 297 286 284 282 285 288 288 291 293 292 285 286 286 286 286 287 288 288 289 289 289 290
285 284 285 280 282 283 282 281 280 281 285 285 284 283 282 278 282 282 286 287 292 295 295 294 284 286 287 286 288 289 291 291 290 291 286 289 285 290 288 289 289 289 290 291 290
285 285 284 282 284 281 283 280 281 282 283 282 281 284 284 280 281 280 284 286 287 291 290 292 284 286 285 288 286 284 290 292 291 292 291 290 286 291 292 287 287 289 290 290 291
290 286 286 285 282 280 278 280 282 284 284 286 284 283 283 285 287 288 290 289 290 291 290 290 286 284 282 287 284 280 286 290 291 292 292 288 293 291 291 289 289 289 290 291 291
Wind_Speed
18 17 15 12 13 12 11 9 10 8 7 6 6 6 6 9 9 5 7 6 5 6 4 9 10 6 3 4 7 5 1 3 5 5 5 2 5 1 2 6 3 1 7 6 17
18 18 17 16 13 13 12 11 11 8 6 6 6 5 4 11 4 10 5 7 9 10 2 8 8 9 3 4 5 3 2 5 4 3 5 6 6 8 5 4 1 2 3 13 17
19 18 16 15 14 11 10 11 11 9 5 5 8 8 7 7 2 7 16 17 13 11 2 3 13 8 6 2 3 3 4 6 7 8 6 7 5 6 7 4 7 11 10 18 14
21 19 17 15 14 12 11 10 11 10 8 4 8 13 10 3 8 2 9 22 15 12 8 5 2 9 8 9 6 2 9 7 14 6 5 6 6 6 8 8 7 11 18 20 18
23 20 18 16 13 12 13 12 11 11 10 6 5 13 6 6 7 2 1 17 13 11 11 5 6 4 9 7 9 5 5 12 16 12 8 5 6 6 9 6 3 12 14 20 19
24 21 19 16 14 13 12 12 12 12 13 10 3 12 3 14 2 4 3 10 9 10 9 8 5 3 9 7 9 5 7 14 14 12 7 5 4 2 7 4 8 16 15 16 18
25 23 20 18 15 13 12 11 13 13 15 13 8 3 9 8 2 4 7 3 3 5 5 4 6 4 9 9 6 3 5 9 20 10 7 5 8 8 6 7 10 14 15 13 15
26 24 22 19 17 14 12 11 10 11 14 14 6 3 6 7 4 5 5 5 5 6 4 5 9 3 3 8 5 5 2 6 14 8 8 8 9 5 10 8 10 10 10 14 16
27 26 24 21 18 15 11 9 9 12 15 13 4 3 6 5 10 5 3 11 5 3 3 4 4 4 2 6 4 4 8 10 13 8 8 8 7 8 8 9 11 10 11 13 14
28 27 26 23 20 17 14 13 12 9 6 6 4 6 5 7 8 7 3 13 6 8 8 4 4 5 4 7 14 12 6 7 12 4 5 8 16 8 5 8 14 10 11 12 12
26 30 28 26 23 21 16 8 6 1 4 4 3 4 3 4 7 11 7 7 6 8 10 7 6 17 17 16 2 8 10 15 10 8 7 17 18 18 14 5 9 9 9 11 16
8 33 30 28 26 25 10 6 7 7 4 9 3 16 3 1 8 12 16 14 8 18 9 5 19 14 13 14 10 7 8 16 12 6 8 11 20 21 10 9 11 13 11 15 15
17 27 33 31 27 18 14 6 7 5 5 3 8 5 4 4 5 20 23 11 13 19 20 21 5 10 13 13 12 14 11 8 13 3 6 4 17 17 9 16 15 12 16 15 18
20 13 34 33 20 15 14 7 7 4 5 6 8 8 9 1 7 6 22 10 5 13 12 8 7 15 12 13 15 16 14 11 11 1 7 9 11 11 8 18 18 21 19 19 17
21 21 34 34 15 19 17 10 7 7 4 8 8 3 9 12 4 7 9 6 9 11 8 7 15 14 15 16 15 8 7 2 6 4 5 5 4 7 3 8 13 19 20 20 19
26 16 33 21 10 17 20 12 6 9 10 5 8 12 13 15 8 5 10 12 2 6 9 5 4 10 9 10 18 7 3 7 3 2 6 12 9 8 7 9 8 7 13 17 14
26 25 16 17 18 20 18 11 7 7 5 7 7 10 17 11 13 10 15 16 14 9 8 8 12 3 13 10 6 8 9 3 3 6 8 1 8 13 7 10 9 10 9 10 11
28 20 10 13 20 24 13 9 7 5 8 1 5 6 14 10 12 10 14 16 5 4 7 11 9 16 13 10 8 17 5 7 8 5 2 4 11 9 16 18 15 8 8 7 9
27 13 5 13 26 18 16 12 13 10 10 11 8 9 8 9 7 13 10 13 9 12 8 10 10 13 16 6 13 8 6 2 10 2 3 5 9 10 15 11 9 10 8 10 9
8 9 4 25 25 17 15 8 7 7 8 5 7 6 12 13 11 17 15 13 12 17 9 7 8 12 11 6 8 9 14 5 5 5 5 5 5 9 7 13 9 8 10 10 9
6 6 13 23 15 14 20 7 5 6 7 8 5 6 5 9 10 12 7 3 17 23 16 6 4 3 10 14 17 7 10 6 7 6 6 2 8 10 14 5 8 9 11 10 9
4 2 20 18 14 9 15 9 6 8 3 4 6 6 5 5 5 11 14 7 15 16 19 7 3 6 12 5 12 25 11 5 5 7 5 3 9 5 7 7 8 9 9 7 7
7 4 16 20 13 13 5 5 5 7 6 6 4 3 4 8 5 6 6 1 6 12 13 11 5 5 4 4 5 11 9 19 2 4 10 7 10 5 3 4 2 7 6 5 4
4 7 9 7 0 24 21 5 6 3 5 5 6 5 5 3 1 8 4 4 12 17 7 12 5 6 12 14 6 14 23 23 21 7 14 20 8 5 6 5 5 4 4 4 5
4 4 3 10 10 15 7 6 10 6 4 5 3 4 8 5 4 6 4 2 1 8 3 3 7 9 11 5 6 12 22 20 21 24 14 26 10 13 8 10 8 5 5 6 6
2 7 2 8 17 12 8 12 15 5 8 5 6 9 6 9 10 8 8 5 5 8 8 11 4 9 10 14 6 6 19 22 21 25 25 18 10 6 8 5 5 8 8 8 8
2 2 8 13 17 13 9 12 12 10 3 7 10 7 13 10 2 5 3 2 3 5 11 7 8 6 7 9 2 5 23 26 27 25 31 22 35 7 6 8 10 11 10 10 8
Wind_Direction
233 236 236 235 227 221 225 248 233 235 241 262 241 244 243 160 120 157 210 207 189 202 333 115 97 130 70 26 328 313 293 246 238 204 242 197 182 222 139 124 89 69 156 195 152
225 228 228 233 233 222 219 226 227 221 217 252 206 199 209 148 160 211 232 241 184 157 186 164 128 107 61 97 15 327 218 235 251 274 244 205 193 172 135 146 80 42 5 145 145
219 222 224 225 230 230 222 216 221 211 199 250 196 173 170 153 311 235 210 247 176 158 49 20 118 118 120 107 87 320 245 314 278 270 258 204 211 189 133 246 199 188 161 158 162
213 215 217 218 221 226 229 223 214 209 187 213 204 178 158 167 222 251 211 198 183 134 110 147 186 122 134 158 142 229 265 300 271 296 290 197 155 186 180 216 203 171 169 162 175
208 211 211 212 214 216 231 232 209 207 181 179 220 183 150 212 236 286 267 187 152 151 148 172 174 141 138 135 136 195 264 317 309 308 285 290 214 205 217 212 93 144 166 178 186
204 204 203 202 205 207 221 225 212 201 189 189 200 206 177 231 84 158 173 136 168 163 165 175 207 278 107 151 150 175 257 268 296 297 279 273 265 181 249 172 131 156 179 192 191
200 199 196 194 194 199 209 219 215 203 203 204 217 180 229 235 351 142 125 115 151 181 155 154 169 280 134 142 137 73 300 290 265 278 246 197 272 229 227 166 177 185 186 195 209
196 195 191 190 189 191 196 206 216 209 203 197 159 116 248 163 142 125 136 68 85 74 110 184 110 101 55 122 69 106 307 256 245 235 254 170 258 232 228 173 215 206 196 196 202
193 191 188 184 182 181 184 194 197 201 199 192 127 140 259 130 178 166 165 141 101 109 102 132 84 121 172 130 91 144 228 228 262 208 222 200 251 231 219 200 225 210 208 207 212
192 188 186 180 173 171 153 125 110 110 166 169 130 142 217 205 157 149 184 145 124 134 114 141 123 164 186 186 205 177 212 242 234 222 283 232 248 265 249 202 226 222 214 213 212
204 184 184 176 169 163 145 112 81 94 246 207 172 233 111 171 114 169 153 164 146 175 187 167 174 208 194 200 127 158 201 230 247 221 213 250 245 243 241 224 239 235 236 218 218
240 182 181 171 168 162 150 166 182 170 191 240 206 216 66 109 184 171 154 178 181 207 136 157 216 204 180 199 193 158 172 238 253 229 228 263 249 247 229 231 229 229 227 227 222
207 208 175 168 163 161 172 180 147 140 93 259 200 205 201 160 235 188 175 165 197 210 201 204 185 156 164 165 182 214 183 237 241 224 257 277 263 251 236 233 240 238 233 224 222
210 238 173 160 153 166 177 178 163 109 66 251 200 230 170 177 273 174 185 161 191 195 179 214 161 164 172 180 179 214 209 220 277 214 241 186 272 247 229 227 224 226 228 231 223
194 202 180 164 144 174 153 156 140 61 98 221 170 146 159 175 120 202 198 124 200 159 165 189 170 171 177 191 179 227 153 183 275 200 330 226 230 259 184 236 235 232 232 229 227
190 220 195 162 143 159 148 136 70 63 239 178 149 175 164 188 194 138 185 228 122 152 199 169 167 164 171 174 184 133 146 71 3 108 240 215 201 264 198 213 250 232 227 230 220
187 208 225 153 159 154 146 134 89 148 285 187 177 170 181 176 171 180 188 188 202 176 177 182 181 162 137 131 165 185 151 134 218 202 229 232 201 252 250 251 232 238 239 229 224
179 190 229 176 147 154 154 113 118 215 198 179 140 162 188 164 190 175 183 207 170 184 166 184 181 172 185 179 168 186 202 165 185 216 222 101 236 246 241 249 246 224 243 273 228
180 189 276 169 159 161 149 177 187 187 166 154 133 168 188 174 182 194 210 191 178 203 175 181 223 177 181 181 144 161 196 186 97 334 63 217 291 288 267 244 243 234 230 225 225
170 180 205 166 164 159 160 194 153 164 133 146 146 178 175 171 165 184 180 204 181 201 221 209 214 191 179 215 219 175 140 149 99 158 246 245 256 249 271 260 261 237 232 232 228
149 168 168 176 166 160 179 175 154 167 130 143 145 140 145 177 172 188 197 211 195 194 206 155 136 265 157 201 192 180 177 199 137 166 185 197 246 220 246 186 247 238 223 221 219
89 188 167 175 153 172 180 160 130 140 127 114 106 110 134 145 140 193 208 227 208 182 196 195 124 192 199 170 240 210 197 204 179 191 204 154 262 230 245 269 238 247 214 217 209
128 206 159 162 155 168 142 157 119 147 151 146 119 133 172 170 139 190 190 236 182 212 194 150 203 151 133 324 330 212 233 200 262 81 213 174 252 310 312 315 254 200 209 203 186
145 153 145 168 214 164 158 165 116 122 109 116 117 112 117 151 11 181 216 232 183 200 170 148 191 205 194 210 110 201 204 201 203 204 227 230 246 286 272 235 228 226 233 214 206
208 140 102 150 159 155 134 134 128 139 110 137 75 149 150 131 154 188 181 290 134 144 168 181 209 211 244 272 195 210 211 205 203 220 200 236 216 236 238 225 213 236 196 190 209
163 142 69 128 144 139 155 178 168 131 133 181 131 163 181 182 181 173 157 210 213 169 186 182 272 191 234 253 256 206 208 212 218 225 234 236 257 207 248 241 213 228 201 202 202
167 25 109 134 156 159 183 161 158 126 15 151 151 145 209 214 146 133 155 227 301 178 193 160 182 171 233 222 200 251 207 203 215 219 222 225 231 163 233 219 219 218 202 203 201